weather.gov     
National Weather Service

Regional Weather Roundup
NWS Homepage
This page is being discontinued on March 12, 2014.
The same data is available at this site. Please update your bookmarks.
Thank you, and we apologize for the inconvenience.
Please send an email to SR-SRH.Webmaster@noaa.gov with any concerns.


Current Version
Previous Version:    01  02  03  04  05  06  07  08  09  10  11  12  13  14  15  16  17  18  19  20  21  22  23  24  25  26  27  28  29  30  
   31  32  33  34  35  36  37  38  39  40  41  42  43  44  45  46  47  48  49  50  51  52  53  54  55  56  57  58  59  60  
[Printable]
148
ASUS46 KLOX 190912
RWRCA

SOUTHERN CALIFORNIA WEATHER ROUNDUP
NATIONAL WEATHER SERVICE OXNARD CALIFORNIA
200 AM PDT FRI SEP 19 2014

NOTE: "FAIR" INDICATES FEW OR NO CLOUDS BELOW 12,000 FEET WITH NO
SIGNIFICANT WEATHER AND/OR OBSTRUCTIONS TO VISIBILITY.

  -  STATIONS PRECEEDED BY AN ASTERISK (*) ARE NOT NWS OR FAA
     STATIONS AND ARE NOT SUBJECT TO NWS AND FAA QUALITY CONTROL.

CAZ041-042-087-191000-
LA AND ORANGE COUNTY COASTAL AREAS


CITY           SKY/WX    TMP DP  RH WIND       PRES   REMARKS
L.A. DOWNTOWN  PTCLDY    68  61  78 CALM      29.87R
L.A. AIRPORT   PTCLDY    68  62  81 W9        29.88R
LONG BEACH     CLEAR     69  63  81 NW3       29.87R

CITY           SKY/WX    TMP DP  RH WIND       PRES   REMARKS
AVALON           N/A     64 N/A N/A S2          N/A
FULLERTON      CLEAR     69  61  75 CALM      29.86R
*GETTY CENTER    N/A    N/A N/A N/A NE3         N/A
HAWTHORNE      MOCLDY    69  63  81 SW5       29.88R
*LOS ALAMITOS  FAIR      66  63  89 W3        29.87R
*REDONDO BEACH   N/A     66  62  86 CALM      29.87R
SANTA ANA      CLEAR     72  64  76 SW5       29.87S
STA MONICA APT CLEAR     67  61  81 CALM      29.87R
*UCLA            N/A     64  61  88 CALM      29.85R

$$

CAZ547-548-048-191000-
LA COUNTY VALLEYS AND INLAND EMPIRE


CITY           SKY/WX    TMP DP  RH WIND       PRES   REMARKS
BURBANK        CLEAR     68  60  75 SE8       29.87S
VAN NUYS       CLEAR     67  59  75 CALM      29.88R

CITY           SKY/WX    TMP DP  RH WIND       PRES   REMARKS
CORONA AIRPORT CLOUDY    69  62  78 CALM      29.88S
*CHATSWORTH      N/A     65  60  84 CALM      29.84R
CHINO          CLOUDY    69  61  75 W6        29.89S
MARCH AFB      PTCLDY    67  62  84 CALM      29.90S
*NORTHRIDGE      N/A     66  57  72 SE1         N/A
ONTARIO        MOCLDY    68  60  75 W8        29.89R
*PASADENA        N/A     68  63  83 CALM        N/A
RIVERSIDE      CLOUDY    69  60  73 W5        29.89R
SAN BERNARDINO NOT AVBL
*WHITEMAN AP   NOT AVBL
*WOODLAND HILL   N/A     63  57  82 S1          N/A

$$

CAZ054-055-191000-
LA AND SAN BERNARDINO COUNTY MOUNTAINS


CITY           SKY/WX    TMP DP  RH WIND       PRES   REMARKS
*BIG BEAR AIRP SUNNY     50  45  81 SW3       30.10F
*CHILAO          N/A     56  52  87 E7          N/A
MT WILSON NWS    N/A     54  48  82 MISG        N/A
SANDBERG       CLEAR     61  48  62 N16       30.00S
*WARM SPRINGS    N/A     59  55  85 S3          N/A

$$

CAZ028-029-059-060-099-191000-
ANTELOPE VALLEY AND SURROUNDING AREAS


CITY           SKY/WX    TMP DP  RH WIND       PRES   REMARKS
LANCASTER      CLEAR     67  53  61 SW10      29.89S
PALMDALE       CLEAR     68  52  56 SW12      29.90S

CITY           SKY/WX    TMP DP  RH WIND       PRES   REMARKS
29 PALMS       CLEAR     75  50  41 W9        29.88R
BARSTOW/DAGGET CLEAR     76  51  41 W16       29.82S
BISHOP         CLOUDY    65  41  41 NW6       29.92R
CHINA LAKE     CLEAR     68  46  45 SW10      29.81R
EDWARDS AFB    CLEAR     67  51  56 SW10      29.86S
MOJAVE         FAIR      68  48  49 W16G24    29.89R
NEEDLES        CLEAR     89  44  20 W10       29.70R
VICTORVILLE    CLEAR     64  55  72 S9        29.91S

$$

CAZ039-040-191000-
VENTURA AND SANTA BARBARA COUNTY COAST


CITY           SKY/WX    TMP DP  RH WIND       PRES   REMARKS
CAMARILLO      CLOUDY    70  62  76 SW3       29.86R
NWS OXNARD       N/A     67  61  83 CALM      29.86S
OXNARD AIRPORT CLOUDY    66  61  84 SW5       29.86R
*POINT MUGU    CLOUDY    69  61  75 W5        29.86S
SBA APT/GOLETA CLEAR     62  59  90 CALM      29.85R
*VENTURA         N/A     67  62  82 E5        29.90S

$$

CAZ044-045-191000-
VENTURA COUNTY VALLEYS


CITY           SKY/WX    TMP DP  RH WIND       PRES   REMARKS
*SIMI VALLEY     N/A     62  58  88 CALM      29.82R
*OJAI            N/A     63  60  90 W1        29.80S
*FILLMORE        N/A     62  58  87 CALM      29.77R

$$

CAZ053-191000-
VENTURA COUNTY MOUNTAINS


CITY           SKY/WX    TMP DP  RH WIND       PRES   REMARKS
*LOCKWOOD VLY    N/A     46  43  87 MISG        N/A
*ROSE VALLEY     N/A     52  52 100 MISG        N/A

$$

CAZ034-035-036-191000-
CENTRAL COAST AND SANTA YNEZ VALLEY


CITY           SKY/WX    TMP DP  RH WIND       PRES   REMARKS
SAN LUIS OBISP CLOUDY    65  59  81 N6        29.90R
SANTA MARIA    CLOUDY    63  59  87 NW3       29.90S

CITY           SKY/WX    TMP DP  RH WIND       PRES   REMARKS
*CAL POLY SLO    N/A    N/A N/A N/A NW1         N/A
*LOMPOC        CLOUDY    66  57  72 NW5       29.90R
*PISMO BEACH     N/A     66  60  82 N1        29.90S
*SANTA YNEZ    CLOUDY    64  55  72 NW7       29.90S

$$

CAZ037-038-051-191000-
SAN LUIS OBISPO COUNTY INTERIOR AND CUYAMA VALLEY


CITY           SKY/WX    TMP DP  RH WIND       PRES   REMARKS
*CUYAMA          N/A     59  55  88 NE1       29.84S
PASO ROBLES    CLEAR     62  57  83 W7        29.90R

$$

CAZ032-033-061-191000-
SOUTHERN DESERTS


CITY           SKY/WX    TMP DP  RH WIND       PRES   REMARKS
BLYTHE         CLEAR     81  59  47 S13       29.70R
IMPERIAL       CLEAR     81  58  45 W15       29.70R
PALM SPRINGS   CLEAR     82  58  43 W6        29.73R
THERMAL        CLEAR     82  59  45 NW10      29.67R

$$

ELSEWHERE ACROSS THE WESTERN UNITED STATES AND MEXICO


CITY           SKY/WX    TMP DP  RH WIND       PRES   REMARKS
DENVER, CO     CLEAR     67  35  30 S17       29.96F
GRAND CANYON,  CLEAR     50  48  93 CALM      30.14S
HONOLULU, HI   PTCLDY    77  72  83 CALM      29.95F
KAHULUI, MAUI  CLEAR     75  68  78 CALM      29.96S
LAKE TAHOE, CA CLOUDY    49  42  77 CALM      30.11S
LAS VEGAS, NV  CLEAR     81  45  28 S14       29.74S
MAMMOTH LAKES, CLOUDY    54  41  62 W10       30.13R
MEXICO CITY, M PTCLDY    59  52  77 NE2       30.27F
PHOENIX, AZ    MOCLDY    86  66  51 CALM      29.76R
PORTLAND, OR   CLOUDY    63  59  87 W5        30.02R
RENO, NV       MOCLDY    64  43  46 NE3       30.04R
SALT LAKE CITY MOCLDY    66  54  65 E5        29.94R
SAN DIEGO, CA  PTCLDY    72  65  78 SW5       29.88F
SAN FRANCISCO, MOCLDY    65  62  90 NW12      29.90R
SAN JOSE, CA   CLEAR     64  60  87 CALM      29.89S
SEATTLE, WA    CLOUDY    63  57  81 S6        30.00S
TIJUANA, MEX   CLOUDY    70  61  73 W7        29.90

$$

STATION/POSITION TIME  TEMP    WIND        PRES    VSBY  WAVE
                       AIR SEA DIR/SP/G                  HT/PER
                 (UTC) (F)     (DEG/KT/KT) (MB)    (MI)  (FT/S)
POINT ARGUELLO B NOT AVBL
WEST SANTA BARBA 0900   62 59  320/ 10/ 12 1011.0S         6/13
POINT CONCEPTION NOT AVBL
EAST SANTA BARBA 0900   65     340/  2     1011.1
SANTA MONICA BAY 0900   68 72  260/ 10/ 14 1011.1R         5/ 9




U.S. Dept. of Commerce
NOAA National Weather Service
1325 East West Highway
Silver Spring, MD 20910
E-mail: w-nws.webmaster@noaa.gov
Page last modified: May 16, 2007
NATIONAL WEATHER SERVICE: for Safety, for Work, for Fun - FOR LIFE